CW0736 Weather Reports


time (UTC)temp
C
wind
direction
speed
KPH
gust
KPH
rain 1hr
cm
rain 24hr
cm
rain mn
cm
humidity
%
barometer
mb
20260505063012 17 266 4.8 14.5 0.00 0.00 0.00 71 1003.0
20260505061540 17 246 3.2 8.0 0.00 0.00 0.00 70 1003.1
20260505060055 17 239 3.2 9.7 0.00 0.00 0.00 69 1002.8
20260505054608 17 227 3.2 8.0 0.00 0.00 0.00 69 1002.9
20260505053015 17 232 4.8 11.3 0.00 0.00 0.00 68 1003.0
20260505051515 17 234 3.2 9.7 0.00 0.00 0.00 68 1003.0
20260505041530 16 202 3.2 8.0 0.00 0.00 0.00 65 1003.0
20260505040053 16 205 3.2 9.7 0.00 0.00 0.00 64 1003.2
20260505034545 16 198 3.2 9.7 0.00 0.00 0.00 63 1003.3
20260505033046 16 171 3.2 6.4 0.00 0.00 0.00 63 1003.5
20260505031542 17 236 3.2 6.4 0.00 0.00 0.00 62 1003.6
20260505030044 16 230 4.8 8.0 0.00 0.00 0.00 57 1003.8
20260505024556 16 190 1.6 4.8 0.00 0.00 0.00 56 1003.5
20260505023058 16 201 3.2 8.0 0.00 0.00 0.00 55 1003.4
20260505021559 17 216 1.6 4.8 0.00 0.00 0.00 54 1003.4
20260505020054 17 257 1.6 3.2 0.00 0.00 0.00 53 1003.6
20260505014607 17 257 1.6 3.2 0.00 0.00 0.00 52 1003.7
20260505013053 17 251 1.6 4.8 0.00 0.00 0.00 52 1003.8
20260505011559 17 253 0.0 3.2 0.00 0.00 0.00 52 1003.6
20260505010050 18 253 1.6 4.8 0.00 0.00 0.00 49 1003.6
20260505004556 18 252 1.6 3.2 0.00 0.00 0.00 49 1003.6
20260505003054 18 249 3.2 8.0 0.00 0.00 0.00 47 1003.5
20260505001516 19 261 1.6 6.4 0.00 0.00 0.00 45 1003.6
20260505000048 20 252 1.6 6.4 0.00 0.00 0.00 43 1003.7
20260504234534 20 239 3.2 11.3 0.00 0.00 0.00 42 1003.7
20260504233028 21 281 1.6 8.0 0.00 0.00 0.00 42 1003.6
20260504231514 21 248 1.6 9.7 0.00 0.00 0.00 40 1003.5
20260504230014 21 252 3.2 6.4 0.00 0.00 0.00 39 1003.6
20260504224520 21 257 3.2 9.7 0.00 0.00 0.00 40 1003.7
20260504223015 22 238 1.6 16.1 0.00 0.00 0.00 39 1003.6
20260504221507 22 262 4.8 12.9 0.00 0.00 0.00 38 1003.4
20260504220015 22 247 3.2 11.3 0.00 0.00 0.00 38 1003.4
20260504214511 22 265 6.4 14.5 0.00 0.00 0.00 36 1003.5
20260504213104 22 279 8.0 17.7 0.00 0.00 0.00 35 1003.6
20260504211550 23 264 4.8 14.5 0.00 0.00 0.00 39 1003.7
20260504210057 22 273 3.2 12.9 0.00 0.00 0.00 40 1003.7
20260504204556 22 263 6.4 20.9 0.00 0.00 0.00 40 1003.8
20260504203006 22 242 8.0 20.9 0.00 0.00 0.00 39 1003.9
20260504201505 22 271 4.8 14.5 0.00 0.00 0.00 42 1004.0
20260504200005 23 283 4.8 16.1 0.00 0.00 0.00 40 1004.1
20260504194559 22 234 4.8 20.9 0.00 0.00 0.00 44 1004.3
20260504193046 22 239 8.0 16.1 0.00 0.00 0.00 41 1004.7
20260504191603 22 252 6.4 19.3 0.00 0.00 0.00 43 1004.9
20260504191502 22 254 4.8 19.3 0.00 0.00 0.00 43 1004.9
20260504190002 22 236 8.0 14.5 0.00 0.00 0.00 44 1005.2
20260504184547 21 278 6.4 16.1 0.00 0.00 0.00 46 1005.4
20260504183047 21 227 6.4 17.7 0.00 0.00 0.00 48 1005.5
20260504181548 21 249 6.4 16.1 0.00 0.00 0.00 50 1005.9
20260504180041 20 224 6.4 22.5 0.00 0.00 0.00 51 1005.9
20260504174541 20 246 8.0 17.7 0.00 0.00 0.00 49 1006.1
20260504173043 20 230 8.0 16.1 0.00 0.00 0.00 50 1006.0
20260504171549 20 255 4.8 12.9 0.00 0.00 0.00 51 1006.0
20260504090114 10 242 3.2 8.0 0.00 0.00 0.00 61 1007.8
20260504081546 10 244 3.2 6.4 0.00 0.00 0.00 62 1008.5